This is the latest recevied weather packets stored in our database for station/object NB9X. If no packets are shown the sender has not sent any weather packets the latest 10 day(s).
| Time | Temp. | Humidity | Pressure | Rain* | Wind** | Luminosity | Snow |
|---|---|---|---|---|---|---|---|
| 1787838277 | 30° C | 100% | 1015.2 hPa | 0 mm | - | - | - |
| 1787837977 | 30.56° C | 100% | 1015.2 hPa | 0 mm | - | - | - |
| 1787837677 | 30.56° C | 100% | 1015.1 hPa | 0 mm | - | - | - |
| 1787837377 | 30° C | 100% | 1015.2 hPa | 0 mm | - | - | - |
| 1787837077 | 29.44° C | 100% | 1015.2 hPa | 0 mm | - | - | - |
| 1787836777 | 29.44° C | 100% | 1015 hPa | 0 mm | - | - | - |
| 1787836477 | 28.89° C | 100% | 1014.9 hPa | 0 mm | - | - | - |
| 1787836177 | 29.44° C | 100% | 1014.8 hPa | 0 mm | - | - | - |
| 1787835877 | 28.89° C | 100% | 1015 hPa | 0 mm | - | - | - |
| 1787835577 | 28.89° C | 100% | 1014.9 hPa | 0 mm | - | - | - |
| 1787835277 | 28.33° C | 100% | 1014.8 hPa | 0 mm | - | - | - |
| 1787834977 | 28.33° C | 100% | 1014.8 hPa | 0 mm | - | - | - |
| 1787834677 | 27.78° C | 100% | 1014.8 hPa | 0 mm | - | - | - |
| 1787834377 | 27.78° C | 100% | 1014.7 hPa | 0 mm | - | - | - |
| 1787834077 | 27.22° C | 100% | 1014.7 hPa | 0 mm | - | - | - |
| 1787833777 | 27.22° C | 100% | 1014.7 hPa | 0 mm | - | - | - |
| 1787833477 | 26.67° C | 100% | 1014.7 hPa | 0 mm | - | - | - |
| 1787833177 | 26.67° C | 100% | 1014.7 hPa | 0 mm | - | - | - |
| 1787832877 | 26.11° C | 100% | 1014.9 hPa | 0 mm | - | - | - |
| 1787831977 | 26.11° C | 100% | 1014.9 hPa | 0 mm | - | - | - |
| 1787831677 | 26.11° C | 100% | 1014.8 hPa | 0 mm | - | - | - |
| 1787830777 | 25.56° C | 100% | 1014.3 hPa | 0 mm | - | - | - |
| 1787830478 | 25.56° C | 100% | 1014.5 hPa | 0 mm | - | - | - |
| 1787830177 | 25.56° C | 100% | 1014.5 hPa | 0 mm | - | - | - |
| 1787829877 | 25.56° C | 100% | 1014.5 hPa | 0 mm | - | - | - |
* Rain latest hour (hover to see other rain measurements)
** Current wind speed in m/s (hover to see current wind gust speed)